| time (UTC) | temp C | wind direction | speed KPH | gust KPH | rain 1hr cm | rain 24hr cm | rain mn cm | humidity % | barometer mb |
| 20260506201553 | 19 | 293 | 3.2 | 11.3 | 0.00 | 0.03 | 0.03 | 77 | 1006.5 |
| 20260506200056 | 19 | 259 | 3.2 | 17.7 | 0.00 | 0.03 | 0.03 | 78 | 1006.5 |
| 20260506194553 | 18 | 279 | 1.6 | 16.1 | 0.00 | 0.03 | 0.03 | 79 | 1006.8 |
| 20260506193056 | 19 | 0 | 0.0 | 16.1 | 0.00 | 0.03 | 0.03 | 78 | 1007.0 |
| 20260506191558 | 18 | 273 | 0.0 | 14.5 | 0.00 | 0.03 | 0.03 | 78 | 1007.0 |
| 20260506190052 | 18 | 0 | 0.0 | 4.8 | 0.00 | 0.03 | 0.03 | 80 | 1007.1 |
| 20260506184553 | 18 | 262 | 0.0 | 9.7 | 0.00 | 0.03 | 0.03 | 82 | 1007.1 |
| 20260506183100 | 18 | 260 | 0.0 | 12.9 | 0.00 | 0.03 | 0.03 | 81 | 1007.2 |
| 20260506181556 | 20 | 275 | 3.2 | 20.9 | 0.00 | 0.03 | 0.03 | 75 | 1007.3 |
| 20260506180058 | 20 | 328 | 6.4 | 24.1 | 0.00 | 0.03 | 0.03 | 71 | 1007.5 |
| 20260506174600 | 20 | 302 | 1.6 | 6.4 | 0.00 | 0.03 | 0.03 | 74 | 1007.4 |
| 20260506173126 | 20 | 294 | 1.6 | 11.3 | 0.00 | 0.03 | 0.03 | 77 | 1007.3 |
| 20260506171553 | 19 | 0 | 3.2 | 11.3 | 0.03 | 0.03 | 0.03 | 79 | 1007.5 |
| 20260506170053 | 18 | 0 | 0.0 | 4.8 | 0.03 | 0.03 | 0.03 | 81 | 1007.7 |
| 20260506164555 | 18 | 0 | 0.0 | 4.8 | 0.03 | 0.03 | 0.03 | 80 | 1008.6 |
| 20260506163056 | 18 | 0 | 0.0 | 11.3 | 0.03 | 0.03 | 0.03 | 77 | 1009.0 |
| 20260506161605 | 19 | 0 | 0.0 | 9.7 | 0.00 | 0.00 | 0.00 | 74 | 1009.1 |
| 20260506160054 | 21 | 260 | 0.0 | 9.7 | 0.00 | 0.00 | 0.00 | 67 | 1009.2 |
| 20260506154601 | 21 | 229 | 1.6 | 19.3 | 0.00 | 0.00 | 0.00 | 61 | 1009.1 |
| 20260506153058 | 21 | 277 | 3.2 | 16.1 | 0.00 | 0.00 | 0.00 | 62 | 1009.1 |
| 20260506151554 | 21 | 243 | 1.6 | 19.3 | 0.00 | 0.00 | 0.00 | 62 | 1009.1 |
| 20260506144609 | 22 | 280 | 3.2 | 17.7 | 0.00 | 0.00 | 0.00 | 60 | 1009.3 |
| 20260506143055 | 22 | 271 | 3.2 | 12.9 | 0.00 | 0.00 | 0.00 | 61 | 1009.2 |
| 20260506141555 | 21 | 286 | 0.0 | 16.1 | 0.00 | 0.00 | 0.00 | 64 | 1009.1 |
| 20260506140110 | 21 | 273 | 4.8 | 19.3 | 0.00 | 0.00 | 0.00 | 62 | 1009.1 |
| 20260506134554 | 21 | 268 | 3.2 | 22.5 | 0.00 | 0.00 | 0.00 | 63 | 1009.0 |
| 20260506133133 | 21 | 265 | 1.6 | 17.7 | 0.00 | 0.00 | 0.00 | 64 | 1009.2 |
| 20260506131555 | 21 | 263 | 3.2 | 14.5 | 0.00 | 0.00 | 0.00 | 65 | 1009.1 |
| 20260506130134 | 20 | 269 | 0.0 | 14.5 | 0.00 | 0.00 | 0.00 | 67 | 1009.2 |
| 20260506124553 | 20 | 0 | 3.2 | 16.1 | 0.00 | 0.00 | 0.00 | 69 | 1009.1 |
| 20260506123053 | 19 | 0 | 1.6 | 16.1 | 0.00 | 0.00 | 0.00 | 71 | 1009.2 |
| 20260506121556 | 19 | 269 | 1.6 | 12.9 | 0.00 | 0.00 | 0.00 | 71 | 1009.3 |
| 20260506120100 | 19 | 0 | 1.6 | 9.7 | 0.00 | 0.00 | 0.00 | 71 | 1009.3 |
| 20260506114553 | 18 | 277 | 0.0 | 11.3 | 0.00 | 0.00 | 0.00 | 73 | 1009.6 |
| 20260506113054 | 18 | 271 | 0.0 | 11.3 | 0.00 | 0.00 | 0.00 | 74 | 1009.6 |
| 20260506111554 | 18 | 0 | 1.6 | 9.7 | 0.00 | 0.00 | 0.00 | 76 | 1009.6 |
| 20260506110055 | 17 | 0 | 0.0 | 6.4 | 0.00 | 0.00 | 0.00 | 77 | 1009.5 |
| 20260506104600 | 17 | 0 | 0.0 | 8.0 | 0.00 | 0.00 | 0.00 | 78 | 1009.3 |
| 20260506103055 | 17 | 0 | 0.0 | 16.1 | 0.00 | 0.00 | 0.00 | 78 | 1009.4 |
| 20260506101552 | 17 | 272 | 0.0 | 9.7 | 0.00 | 0.00 | 0.00 | 79 | 1009.4 |
| 20260506100105 | 17 | 0 | 1.6 | 14.5 | 0.00 | 0.00 | 0.00 | 79 | 1009.2 |
| 20260506094605 | 17 | 0 | 0.0 | 9.7 | 0.00 | 0.00 | 0.00 | 79 | 1009.2 |
| 20260506093056 | 17 | 0 | 0.0 | 3.2 | 0.00 | 0.00 | 0.00 | 79 | 1009.1 |
| 20260506091607 | 17 | 0 | 0.0 | 1.6 | 0.00 | 0.00 | 0.00 | 79 | 1009.2 |
| 20260506090059 | 17 | 0 | 0.0 | 4.8 | 0.00 | 0.00 | 0.00 | 78 | 1009.3 |
| 20260506084602 | 17 | 270 | 0.0 | 3.2 | 0.00 | 0.00 | 0.00 | 78 | 1009.4 |
| 20260506083058 | 17 | 270 | 0.0 | 1.6 | 0.00 | 0.00 | 0.00 | 78 | 1009.4 |
| 20260506081608 | 17 | 0 | 0.0 | 1.6 | 0.00 | 0.00 | 0.00 | 78 | 1009.6 |
| 20260506073053 | 17 | 0 | 0.0 | 3.2 | 0.00 | 0.00 | 0.00 | 77 | 1009.5 |
| 20260506071553 | 17 | 0 | 0.0 | 1.6 | 0.00 | 0.00 | 0.00 | 76 | 1009.7 |
| 20260506061553 | 18 | 0 | 0.0 | 3.2 | 0.00 | 0.00 | 0.00 | 72 | 1009.8 |
| 20260506044555 | 19 | 275 | 0.0 | 4.8 | 0.00 | 0.00 | 0.00 | 68 | 1010.3 |
| 20260506043057 | 20 | 0 | 0.0 | 9.7 | 0.00 | 0.00 | 0.00 | 67 | 1010.3 |
| 20260506041555 | 20 | 0 | 0.0 | 4.8 | 0.00 | 0.00 | 0.00 | 66 | 1010.2 |
| 20260506040057 | 20 | 296 | 0.0 | 3.2 | 0.00 | 0.00 | 0.00 | 65 | 1010.3 |
| 20260506034611 | 20 | 296 | 1.6 | 11.3 | 0.00 | 0.00 | 0.00 | 64 | 1010.3 |
| 20260506033055 | 20 | 313 | 0.0 | 11.3 | 0.00 | 0.00 | 0.00 | 63 | 1010.3 |
| 20260506031556 | 20 | 0 | 0.0 | 17.7 | 0.00 | 0.00 | 0.00 | 61 | 1010.3 |
| 20260506030054 | 21 | 310 | 0.0 | 6.4 | 0.00 | 0.00 | 0.00 | 60 | 1010.3 |
| 20260506024556 | 21 | 159 | 1.6 | 22.5 | 0.00 | 0.00 | 0.00 | 58 | 1010.1 |
| 20260506023058 | 21 | 130 | 0.0 | 6.4 | 0.00 | 0.00 | 0.00 | 57 | 1010.2 |
| 20260506021554 | 21 | 284 | 0.0 | 6.4 | 0.00 | 0.00 | 0.00 | 57 | 1010.3 |
| 20260506020055 | 21 | 284 | 1.6 | 8.0 | 0.00 | 0.00 | 0.00 | 56 | 1010.1 |
| 20260506014553 | 21 | 0 | 0.0 | 3.2 | 0.00 | 0.00 | 0.00 | 56 | 1010.2 |
| 20260506013106 | 22 | 0 | 0.0 | 9.7 | 0.00 | 0.00 | 0.00 | 55 | 1010.0 |
| 20260506011558 | 22 | 0 | 1.6 | 11.3 | 0.00 | 0.00 | 0.00 | 54 | 1009.9 |
| 20260506010117 | 22 | 0 | 0.0 | 11.3 | 0.00 | 0.00 | 0.00 | 52 | 1009.8 |
| 20260506004554 | 23 | 289 | 0.0 | 8.0 | 0.00 | 0.00 | 0.00 | 48 | 1009.5 |
| 20260506003112 | 24 | 290 | 1.6 | 14.5 | 0.00 | 0.00 | 0.00 | 42 | 1009.2 |
| 20260506001603 | 25 | 286 | 1.6 | 19.3 | 0.00 | 0.00 | 0.00 | 42 | 1009.2 |
| 20260506000059 | 25 | 0 | 1.6 | 6.4 | 0.00 | 0.00 | 0.00 | 40 | 1009.2 |
| 20260505234558 | 26 | 273 | 1.6 | 22.5 | 0.00 | 0.00 | 0.00 | 37 | 1008.9 |
| 20260505233124 | 26 | 340 | 3.2 | 17.7 | 0.00 | 0.00 | 0.00 | 36 | 1008.7 |
| 20260505231611 | 27 | 261 | 3.2 | 14.5 | 0.00 | 0.00 | 0.00 | 35 | 1008.3 |
| 20260505230110 | 27 | 279 | 1.6 | 11.3 | 0.00 | 0.00 | 0.00 | 33 | 1008.2 |
| 20260505224610 | 27 | 266 | 1.6 | 22.5 | 0.00 | 0.00 | 0.00 | 30 | 1008.0 |
| 20260505223101 | 28 | 275 | 4.8 | 16.1 | 0.00 | 0.00 | 0.00 | 27 | 1008.1 |
| 20260505221612 | 28 | 267 | 0.0 | 20.9 | 0.00 | 0.00 | 0.00 | 27 | 1007.9 |
| 20260505220100 | 28 | 257 | 6.4 | 24.1 | 0.00 | 0.00 | 0.00 | 26 | 1007.8 |
| 20260505214635 | 28 | 0 | 3.2 | 16.1 | 0.00 | 0.00 | 0.00 | 32 | 1007.5 |
| 20260505213116 | 28 | 261 | 3.2 | 20.9 | 0.00 | 0.00 | 0.00 | 31 | 1007.5 |
| 20260505211558 | 28 | 0 | 3.2 | 19.3 | 0.00 | 0.00 | 0.00 | 32 | 1007.5 |
| 20260505210053 | 28 | 274 | 3.2 | 25.7 | 0.00 | 0.00 | 0.00 | 31 | 1007.4 |
| 20260505204555 | 29 | 269 | 4.8 | 19.3 | 0.00 | 0.00 | 0.00 | 31 | 1007.2 |
| 20260505203056 | 29 | 5 | 6.4 | 33.8 | 0.00 | 0.00 | 0.00 | 31 | 1007.6 |